Location: Burleson Fire Department Station 2
(32.5391°N, 97.3075°W)
Time: 23:52:10
(UTC+00:00)

Envisat - Visible Passes

Search period start: 07 October 2024 00:00
Search period end: 17 October 2024 00:00
Orbit: 762 x 764 km, 98.3° (Epoch: 07 October)

Date Brightness Start Highest point End Pass type
(mag) Time Alt. Az. Time Alt. Az. Time Alt. Az.
07 Oct 5.3 10:20:46 10° N 10:21:04 11° NNW 10:21:04 11° NNW visible
08 Oct 5.6 09:42:46 10° N 09:43:01 11° N 09:43:01 11° N visible
10 Oct 5.5 10:07:01 10° N 10:07:04 10° N 10:07:04 10° N visible
